Location: ??????
(55.7522°N, 37.6156°E)
Time: 17:02:49
(UTC+00:00)

In-Cosmos 22 Rocket - Pass Details

Date: 14 June 2025
Orbit: 790 x 886 km, 81.2° (Epoch: 12 July)

Event Time Altitude Azimuth Distance (km) Brightness Sun altitude
Exits shadow 23:02:49 10° 191° (S) 2,481 6.0 -8.5°
Reaches altitude 10° 23:02:49 10° 191° (S) 2,478 6.0 -8.5°
Maximum altitude 23:08:28 87° 104° (ESE) 877 4.3 -8.2°
Drops below altitude 10° 23:14:18 10° 15° (NNE) 2,548 8.4 -7.9°
Sets 23:16:47 0° 15° (NNE) 3,498 9.6 -7.7°
